Location: 5810 Zion Rd, Cleves, OH 45002, USA
(39.1922°N, 84.7113°W)
Time: 23:31:53
(UTC-05:00)

Vanguard 3 - Pass Details

Date: 23 December 2019
Orbit: 507 x 3263 km, 33.4° (Epoch: 24 January)

Event Time Altitude Azimuth Distance (km) Brightness Sun altitude
Rises 08:56:55 0° 268° (W) 3,245 9.8 8.9°
Reaches altitude 10° 08:59:04 10° 260° (W) 2,541 9.4 9.2°
Maximum altitude 09:04:41 38° 193° (SSW) 1,774 9.4 10.0°
Drops below altitude 10° 09:14:03 10° 130° (SE) 4,247 14.3 11.3°
Sets 09:18:47 0° 124° (SE) 5,733 13.4 12.0°
